Stations météo

réclame
Mon MeteoGroup
Cordoba Aeropuerto (AWS), Espagne (8410): Température de l'air & dewpoint: 12.01.2020 14:00:00 - 18.01.2020 14:00:00 (CET)Cordoba Aeropuerto (AWS), Espagne (8410): Vitesse du vent: 12.01.2020 14:00:00 - 18.01.2020 14:00:00 (CET)Cordoba Aeropuerto (AWS), Espagne (8410): Direction du vent: 12.01.2020 14:00:00 - 18.01.2020 14:00:00 (CET)Cordoba Aeropuerto (AWS), Espagne (8410): reduced air pressure: 12.01.2020 14:00:00 - 18.01.2020 14:00:00 (CET)Cordoba Aeropuerto (AWS), Espagne (8410): visibility: 12.01.2020 14:00:00 - 18.01.2020 14:00:00 (CET)
Date & Time tt [°C] td [°C] ff [km/h] ff [knt] dd ppp [hPa] vv [km]
18.01.2020 14:00:00 11,0 9,4 11 6 ENE 1029,7 -
18.01.2020 13:00:00 10,9 9,0 11 6 ENE 1031,0 6
18.01.2020 12:00:00 10,3 8,9 9 5 E 1032,4 -
18.01.2020 11:00:00 9,6 8,7 8 4 ENE 1032,7 -
18.01.2020 10:00:00 8,9 8,0 8 4 E 1032,6 4,0
18.01.2020 09:00:00 8,5 7,4 4 2 E 1032,3 -
18.01.2020 08:00:00 8,2 7,1 0 0 N 1032,0 -
18.01.2020 07:00:00 8,0 6,9 4 2 SSW 1031,5 -
18.01.2020 06:00:00 8,0 6,9 5 3 SW 1031,1 -
18.01.2020 05:00:00 7,7 6,6 2 1 NNW 1031,7 -
18.01.2020 04:00:00 7,6 6,5 0 0 N 1032,1 -
18.01.2020 03:00:00 7,6 6,5 0 0 N 1032,2 -
18.01.2020 02:00:00 7,6 6,5 0 0 N 1032,5 -
18.01.2020 01:00:00 7,6 6,2 5 3 SSE 1032,9 -
18.01.2020 00:00:00 8,5 7,1 4 2 SSW 1033,0 -
17.01.2020 23:00:00 9,1 7,5 0 0 N 1033,1 -
17.01.2020 22:00:00 9,6 7,8 4 2 NE 1033,3 -
17.01.2020 21:00:00 10,5 8,1 0 0 N 1033,2 -
17.01.2020 20:00:00 11,7 8,6 2 1 SSE 1032,8 -
17.01.2020 19:00:00 14,0 9,4 4 2 W 1032,0 15
17.01.2020 18:00:00 17,1 9,8 5 3 W 1031,4 -
17.01.2020 17:00:00 17,8 9,4 0 0 N 1031,2 -
17.01.2020 16:00:00 17,9 9,3 2 1 WSW 1031,1 20
17.01.2020 15:00:00 16,8 9,6 5 3 ENE 1031,9 -
17.01.2020 14:00:00 16,3 9,4 4 2 E 1032,5 -
17.01.2020 13:00:00 15,1 7,5 2 1 ENE 1033,7 10
17.01.2020 12:00:00 13,1 6,4 5 3 ENE 1034,4 -
17.01.2020 11:00:00 10,7 6,1 8 4 E 1034,4 -
17.01.2020 10:00:00 9,3 5,7 4 2 E 1033,9 -
17.01.2020 09:00:00 8,6 5,3 4 2 E 1033,0 -
17.01.2020 08:00:00 8,3 5,2 8 4 E 1032,4 -
17.01.2020 07:00:00 8,0 5,1 4 2 ENE 1031,9 -
17.01.2020 06:00:00 7,8 4,9 8 4 ENE 1031,5 -
17.01.2020 05:00:00 7,1 4,9 5 3 E 1031,2 -
17.01.2020 04:00:00 7,4 4,9 4 2 E 1030,9 -
17.01.2020 03:00:00 7,5 5,0 8 4 E 1031,0 -
17.01.2020 02:00:00 7,2 5,3 4 2 NE 1030,9 -
17.01.2020 01:00:00 7,2 4,8 0 0 N 1031,2 -
17.01.2020 00:00:00 6,8 4,3 4 2 E 1031,1 -
16.01.2020 23:00:00 7,5 4,4 5 3 E 1030,4 -
16.01.2020 22:00:00 7,5 4,6 0 0 N 1029,7 -
16.01.2020 21:00:00 8,2 4,2 4 2 SW 1029,2 -
16.01.2020 20:00:00 9,8 4,8 4 2 WSW 1028,7 -
16.01.2020 19:00:00 12,3 5,2 4 2 S 1027,9 30
16.01.2020 18:00:00 16,5 3,5 8 4 WSW 1027,3 -
16.01.2020 17:00:00 17,7 2,3 8 4 WSW 1027,2 -
16.01.2020 16:00:00 17,7 2,9 8 4 W 1027,3 30
16.01.2020 15:00:00 17,5 4,1 4 2 WSW 1027,6 -
16.01.2020 14:00:00 15,0 3,5 11 6 E 1028,3 -
16.01.2020 13:00:00 13,4 4,1 11 6 E 1029,3 30
16.01.2020 12:00:00 11,8 4,3 16 9 E 1030,1 -
16.01.2020 11:00:00 9,7 4,1 13 7 E 1030,3 -
16.01.2020 10:00:00 7,5 3,7 13 7 E 1029,9 25
16.01.2020 09:00:00 5,4 3,1 11 6 E 1029,6 -
16.01.2020 08:00:00 5,4 3,1 13 7 E 1029,4 -
16.01.2020 07:00:00 5,8 3,6 13 7 E 1028,9 -
16.01.2020 06:00:00 6,1 3,9 13 7 E 1028,8 -
16.01.2020 05:00:00 6,2 4,2 9 5 E 1028,7 -
16.01.2020 04:00:00 7,1 5,2 5 3 E 1028,9 -
16.01.2020 03:00:00 8,0 5,8 8 4 ENE 1029,0 -
16.01.2020 02:00:00 8,9 6,7 8 4 E 1028,8 -
16.01.2020 01:00:00 8,9 7,0 9 5 E 1029,0 -
16.01.2020 00:00:00 9,1 7,2 9 5 E 1029,1 -
15.01.2020 23:00:00 8,6 6,9 8 4 E 1028,9 -
15.01.2020 22:00:00 8,9 7,0 4 2 E 1028,7 -
15.01.2020 21:00:00 9,5 7,4 8 4 E 1028,4 -
15.01.2020 20:00:00 10,5 7,9 4 2 NE 1028,4 -
15.01.2020 19:00:00 12,1 7,8 8 4 NE 1027,8 20
15.01.2020 18:00:00 14,9 8,6 5 3 N 1027,3 -
15.01.2020 17:00:00 16,4 8,4 2 1 SW 1027,0 -
15.01.2020 16:00:00 16,1 8,3 4 2 W 1026,9 25
15.01.2020 15:00:00 14,7 6,0 5 3 ESE 1027,0 -
15.01.2020 14:00:00 13,4 4,8 9 5 E 1027,7 -
15.01.2020 13:00:00 11,9 5,0 11 6 E 1028,3 20
15.01.2020 12:00:00 10,2 4,9 13 7 E 1029,1 -
15.01.2020 11:00:00 8,1 3,9 15 8 E 1028,8 -
15.01.2020 10:00:00 6,0 3,5 11 6 E 1028,0 20
15.01.2020 09:00:00 3,3 2,1 11 6 E 1027,6 -
15.01.2020 08:00:00 3,5 2,3 13 7 E 1027,1 -
15.01.2020 07:00:00 3,5 2,5 13 7 E 1026,4 -
15.01.2020 06:00:00 3,5 2,5 9 5 E 1026,0 -
15.01.2020 05:00:00 3,4 2,2 8 4 E 1026,0 -
15.01.2020 04:00:00 4,1 2,9 8 4 E 1026,2 -
15.01.2020 03:00:00 4,2 3,0 8 4 E 1026,1 -
15.01.2020 02:00:00 4,7 3,2 5 3 E 1026,2 -
15.01.2020 01:00:00 5,6 4,2 5 3 E 1026,3 -
15.01.2020 00:00:00 5,4 4,0 5 3 E 1026,2 -
14.01.2020 23:00:00 5,7 4,3 0 0 N 1026,0 -
14.01.2020 22:00:00 6,6 4,9 0 0 N 1025,6 -
14.01.2020 21:00:00 7,7 5,5 4 2 NNE 1025,4 -
14.01.2020 20:00:00 8,9 6,0 2 1 E 1025,2 -
14.01.2020 19:00:00 11,0 5,3 0 0 N 1024,7 25
14.01.2020 18:00:00 12,9 5,3 5 3 WNW 1024,3 -
14.01.2020 17:00:00 14,9 4,9 2 1 W 1023,8 -
14.01.2020 16:00:00 14,2 5,1 5 3 E 1023,7 -
14.01.2020 15:00:00 14,3 5,1 4 2 SW 1024,2 -
14.01.2020 14:00:00 12,7 4,2 4 2 E 1025,0 -
14.01.2020 13:00:00 10,6 3,8 11 6 E 1026,0 20
14.01.2020 12:00:00 9,5 4,0 13 7 E 1026,7 -
14.01.2020 11:00:00 6,3 3,1 13 7 E 1026,7 -
14.01.2020 10:00:00 5,0 2,5 15 8 E 1026,2 9
14.01.2020 09:00:00 4,2 2,6 8 4 E 1025,9 -
14.01.2020 08:00:00 3,5 2,5 11 6 E 1025,8 -
14.01.2020 07:00:00 2,8 1,9 8 4 E 1025,6 -
14.01.2020 06:00:00 1,8 0,9 4 2 E 1025,2 -
14.01.2020 05:00:00 1,7 0,8 4 2 ENE 1025,4 -
14.01.2020 04:00:00 2,0 1,1 4 2 NE 1025,7 -
14.01.2020 03:00:00 2,2 1,3 4 2 E 1025,8 -
14.01.2020 02:00:00 2,0 1,0 2 1 E 1026,0 -
14.01.2020 01:00:00 2,5 1,5 2 1 E 1026,3 -
14.01.2020 00:00:00 3,4 2,4 0 0 N 1026,5 -
13.01.2020 23:00:00 3,8 2,3 4 2 SE 1026,2 -
13.01.2020 22:00:00 4,9 3,2 0 0 N 1026,1 -
13.01.2020 21:00:00 6,3 4,1 0 0 N 1026,1 -
13.01.2020 20:00:00 8,1 4,5 0 0 N 1026,0 -
13.01.2020 19:00:00 9,9 5,5 4 2 S 1025,9 20
13.01.2020 18:00:00 13,4 5,0 5 3 W 1025,6 -
13.01.2020 17:00:00 15,1 4,9 4 2 SW 1025,5 -
13.01.2020 16:00:00 14,4 4,7 2 1 SSE 1025,6 20
13.01.2020 15:00:00 13,4 4,5 4 2 ENE 1026,1 -
13.01.2020 14:00:00 12,2 3,7 5 3 E 1027,4 -
13.01.2020 13:00:00 10,7 2,8 11 6 E 1028,6 10
13.01.2020 12:00:00 9,3 3,3 15 8 E 1029,7 -
13.01.2020 11:00:00 7,2 3,1 11 6 E 1029,7 -
13.01.2020 10:00:00 4,1 2,4 8 4 ESE 1029,4 -
13.01.2020 09:00:00 1,2 0,5 0 0 N 1029,4 -
13.01.2020 08:00:00 1,2 0,5 8 4 E 1029,1 -
13.01.2020 07:00:00 1,1 0,4 5 3 ESE 1029,0 -
13.01.2020 06:00:00 0,8 -0,1 4 2 E 1028,8 -
13.01.2020 05:00:00 1,0 0,1 4 2 SE 1029,1 -
13.01.2020 04:00:00 0,6 -0,4 2 1 SE 1029,5 -
13.01.2020 03:00:00 1,1 0,1 4 2 NNE 1029,7 -
13.01.2020 02:00:00 1,6 0,4 0 0 N 1029,8 -
13.01.2020 01:00:00 2,4 1,1 0 0 N 1030,3 -
13.01.2020 00:00:00 3,2 1,9 0 0 N 1030,7 -
12.01.2020 23:00:00 4,0 2,5 0 0 N 1030,7 -
12.01.2020 22:00:00 5,1 2,9 0 0 N 1030,4 -
12.01.2020 21:00:00 6,2 3,7 0 0 N 1030,2 -
12.01.2020 20:00:00 8,0 4,0 2 1 NE 1030,0 -
12.01.2020 19:00:00 11,3 4,3 0 0 N 1029,4 40
12.01.2020 18:00:00 16,0 5,1 4 2 SW 1028,9 -
12.01.2020 17:00:00 15,8 2,4 5 3 ENE 1028,8 -
12.01.2020 16:00:00 15,4 3,5 5 3 ENE 1029,1 40
12.01.2020 15:00:00 14,7 3,3 5 3 E 1029,7 -
12.01.2020 14:00:00 12,9 3,5 11 6 E 1030,7 -

tt = Température de l'air
td = dewpoint
ff = Vitesse du vent
dd = Direction du vent
ppp = reduced air pressure
vv = visibility

stations d'obs. à proximité